Orbital Elements
Epoch 2025 May 5.0 TT = JDT 2460800.5
T 2024 Sept. 14.14008 TT Pike
q 3.6664134 (2000.0) P Q
z -0.0001208 Peri. 41.74676 -0.03430680 +0.83149813
+/-0.0000003 Node 125.39714 +0.63723066 -0.40919334
e 1.0004430 Incl. 137.14096 +0.76990917 +0.37572819
From 3972 observations 2022 Feb. 23-2025 Feb. 25, mean residual 0".7.
|